timestamp,wind_dir_avg,wind_spd_avg,wind_spd_max_dir,wind_spd_gust,battery_voltage,lat,long
2022-02-25 00:04:01+00:00,314.0,5.98,304.0,8.8,12.41,47.59359,-54.27349
2022-02-25 00:14:00+00:00,304.0,5.93,295.0,8.51,12.41,47.59359,-54.27349
2022-02-25 00:24:00+00:00,300.0,7.12,301.0,9.3,12.41,47.59359,-54.27349
2022-02-25 00:34:00+00:00,298.0,7.42,285.0,10.11,12.41,47.59359,-54.27349
2022-02-25 00:44:00+00:00,286.0,10.02,278.0,13.75,12.41,47.59359,-54.27349
2022-02-25 00:54:00+00:00,304.0,7.62,309.0,9.38,12.41,47.59359,-54.27349
2022-02-25 01:04:00+00:00,291.0,9.38,287.0,13.63,12.41,47.59359,-54.27349
2022-02-25 01:14:01+00:00,286.0,10.54,285.0,13.96,12.41,47.59359,-54.27349
2022-02-25 01:24:01+00:00,296.0,8.42,296.0,9.47,12.41,47.59359,-54.27349
2022-02-25 01:34:01+00:00,299.0,8.78,295.0,10.78,12.41,47.59359,-54.27349
2022-02-25 01:44:01+00:00,302.0,7.94,293.0,10.23,12.41,47.59359,-54.27349
2022-02-25 01:54:01+00:00,298.0,9.09,284.0,12.58,12.41,47.59359,-54.27349
2022-02-25 02:04:01+00:00,300.0,9.81,296.0,11.35,12.41,47.59359,-54.27349
2022-02-25 02:14:00+00:00,304.0,9.6,295.0,13.42,12.33,47.59359,-54.27349
2022-02-25 02:24:00+00:00,297.0,10.67,296.0,12.92,12.33,47.59359,-54.27349
2022-02-25 02:34:00+00:00,295.0,10.13,291.0,14.01,12.33,47.59359,-54.27349
2022-02-25 02:44:00+00:00,298.0,7.96,304.0,8.88,12.33,47.59359,-54.27349
2022-02-25 02:54:00+00:00,302.0,7.68,301.0,8.97,12.33,47.59359,-54.27349
2022-02-25 03:04:00+00:00,297.0,8.63,296.0,12.3,12.33,47.59359,-54.27349
2022-02-25 03:14:01+00:00,291.0,7.7,294.0,8.42,12.33,47.59359,-54.27349
2022-02-25 03:24:01+00:00,291.0,8.58,278.0,11.49,12.33,47.59359,-54.27349
2022-02-25 03:34:01+00:00,298.0,7.79,302.0,9.04,12.33,47.59359,-54.27349
2022-02-25 03:44:01+00:00,296.0,8.07,305.0,10.32,12.33,47.59359,-54.27349
2022-02-25 03:54:01+00:00,282.0,7.0,287.0,8.36,12.33,47.59359,-54.27349
2022-02-25 04:04:01+00:00,286.0,7.44,300.0,9.19,12.33,47.59359,-54.27349
2022-02-25 04:14:00+00:00,296.0,5.66,294.0,7.07,12.33,47.59359,-54.27349
2022-02-25 04:24:00+00:00,297.0,5.67,305.0,7.75,12.33,47.59359,-54.27349
2022-02-25 04:34:00+00:00,285.0,6.71,285.0,7.6,12.33,47.59359,-54.27349
2022-02-25 04:44:00+00:00,300.0,5.43,303.0,6.62,12.33,47.59359,-54.27349
2022-02-25 04:54:00+00:00,272.0,4.96,271.0,6.18,12.33,47.59359,-54.27349
2022-02-25 05:04:00+00:00,281.0,4.73,278.0,6.28,12.33,47.59359,-54.27349
2022-02-25 05:14:01+00:00,304.0,5.93,304.0,7.37,12.25,47.59359,-54.27349
2022-02-25 05:24:01+00:00,302.0,8.22,310.0,10.03,12.25,47.59359,-54.27349
2022-02-25 05:34:01+00:00,293.0,9.63,289.0,13.49,12.25,47.59359,-54.27349
2022-02-25 05:44:01+00:00,306.0,9.33,306.0,10.98,12.25,47.59359,-54.27349
2022-02-25 05:54:01+00:00,293.0,11.26,288.0,14.27,12.25,47.59359,-54.27349
2022-02-25 06:04:01+00:00,291.0,12.15,291.0,14.33,12.25,47.59359,-54.27349
2022-02-25 06:14:00+00:00,292.0,9.73,287.0,13.21,12.25,47.59359,-54.27349
2022-02-25 06:24:00+00:00,296.0,8.79,302.0,10.58,12.25,47.59359,-54.27349
2022-02-25 06:34:00+00:00,284.0,8.97,277.0,13.33,12.25,47.59359,-54.27349
2022-02-25 06:44:00+00:00,288.0,8.38,285.0,12.09,12.25,47.59359,-54.27349
2022-02-25 06:54:00+00:00,295.0,8.32,299.0,9.39,12.25,47.59359,-54.27349
2022-02-25 07:04:00+00:00,287.0,7.4,278.0,9.2,12.25,47.59359,-54.27349
2022-02-25 07:14:01+00:00,286.0,7.77,298.0,8.65,12.25,47.59359,-54.27349
2022-02-25 07:24:01+00:00,284.0,7.86,286.0,8.73,12.25,47.59359,-54.27349
2022-02-25 07:34:01+00:00,281.0,8.79,279.0,10.92,12.25,47.59359,-54.27349
2022-02-25 07:44:01+00:00,281.0,7.55,285.0,8.57,12.25,47.59359,-54.27349
2022-02-25 07:54:01+00:00,276.0,7.74,285.0,8.96,12.25,47.59359,-54.27349
2022-02-25 08:04:01+00:00,275.0,7.31,273.0,8.8,12.25,47.59359,-54.27349
2022-02-25 08:14:00+00:00,274.0,8.7,272.0,11.27,12.17,47.59359,-54.27349
2022-02-25 08:24:00+00:00,286.0,7.56,290.0,8.41,12.17,47.59359,-54.27349
2022-02-25 08:34:00+00:00,294.0,8.69,301.0,10.31,12.17,47.59359,-54.27349
2022-02-25 08:44:00+00:00,287.0,8.7,285.0,12.5,12.17,47.59359,-54.27349
2022-02-25 08:54:00+00:00,296.0,8.16,291.0,10.72,12.17,47.59359,-54.27349
2022-02-25 09:04:00+00:00,298.0,7.86,303.0,9.48,12.17,47.59359,-54.27349
2022-02-25 09:14:00+00:00,296.0,8.64,299.0,10.56,12.17,47.59359,-54.27349
2022-02-25 09:24:00+00:00,305.0,9.92,293.0,13.61,12.17,47.59359,-54.27349
2022-02-25 09:34:00+00:00,308.0,10.14,311.0,11.89,12.17,47.59359,-54.27349
2022-02-25 09:44:00+00:00,308.0,9.1,307.0,11.61,12.17,47.59359,-54.27349
2022-02-25 09:54:00+00:00,304.0,8.67,307.0,10.8,12.17,47.59359,-54.27349
2022-02-25 10:04:00+00:00,296.0,8.68,279.0,10.7,12.17,47.59359,-54.27349
2022-02-25 10:14:00+00:00,297.0,10.21,299.0,13.41,12.17,47.59359,-54.27349
2022-02-25 10:24:00+00:00,287.0,7.72,295.0,9.21,12.17,47.59359,-54.27349
2022-02-25 10:34:00+00:00,300.0,8.72,294.0,10.65,12.17,47.59359,-54.27349
2022-02-25 10:44:00+00:00,293.0,8.46,298.0,11.23,12.17,47.59359,-54.27349
2022-02-25 10:54:00+00:00,272.0,8.05,277.0,11.56,12.17,47.59359,-54.27349
2022-02-25 11:04:00+00:00,299.0,8.95,304.0,10.65,12.17,47.59359,-54.27349
2022-02-25 11:14:00+00:00,299.0,9.44,299.0,11.26,13.37,47.59359,-54.27349
2022-02-25 11:24:00+00:00,302.0,9.23,307.0,12.33,13.37,47.59359,-54.27349
2022-02-25 11:34:00+00:00,305.0,6.28,284.0,9.65,13.37,47.59359,-54.27349
2022-02-25 11:44:00+00:00,289.0,8.75,297.0,11.43,13.37,47.59359,-54.27349
2022-02-25 11:54:00+00:00,297.0,8.9,298.0,12.17,13.37,47.59359,-54.27349
2022-02-25 12:04:00+00:00,304.0,8.1,297.0,10.32,13.37,47.59359,-54.27349
2022-02-25 12:14:00+00:00,296.0,9.64,296.0,11.14,13.84,47.59359,-54.27349
2022-02-25 12:24:00+00:00,291.0,9.04,291.0,11.18,13.84,47.59359,-54.27349
2022-02-25 12:34:00+00:00,285.0,8.33,285.0,11.77,13.84,47.59359,-54.27349
2022-02-25 12:44:00+00:00,295.0,9.92,299.0,12.01,13.84,47.59359,-54.27349
2022-02-25 12:54:00+00:00,304.0,9.64,304.0,12.52,13.84,47.59359,-54.27349
2022-02-25 13:04:00+00:00,295.0,8.86,290.0,10.97,13.84,47.59359,-54.27349
2022-02-25 13:14:01+00:00,284.0,7.69,281.0,10.05,13.68,47.59359,-54.27349
2022-02-25 13:24:01+00:00,297.0,8.9,291.0,10.75,13.68,47.59359,-54.27349
2022-02-25 13:34:01+00:00,278.0,9.78,271.0,12.16,13.68,47.59359,-54.27349
2022-02-25 13:44:01+00:00,276.0,7.9,277.0,8.95,13.68,47.59359,-54.27349
2022-02-25 13:54:01+00:00,274.0,8.37,281.0,11.78,13.68,47.59359,-54.27349
2022-02-25 14:04:01+00:00,285.0,9.16,285.0,11.32,13.68,47.59359,-54.27349
2022-02-25 14:14:01+00:00,287.0,8.24,285.0,10.01,13.68,47.59359,-54.27349
2022-02-25 14:24:01+00:00,296.0,9.48,297.0,10.73,13.68,47.59359,-54.27349
2022-02-25 14:34:01+00:00,295.0,8.75,305.0,10.37,13.68,47.59359,-54.27349
2022-02-25 14:44:01+00:00,307.0,10.07,310.0,11.49,13.68,47.59359,-54.27349
2022-02-25 14:54:01+00:00,283.0,8.84,288.0,10.26,13.68,47.59359,-54.27349
2022-02-25 15:04:01+00:00,284.0,7.27,286.0,8.79,13.68,47.59359,-54.27349
2022-02-25 15:14:01+00:00,302.0,8.23,311.0,10.57,14.4,47.59359,-54.27349
2022-02-25 15:24:01+00:00,284.0,6.11,288.0,9.11,14.4,47.59359,-54.27349
2022-02-25 15:34:01+00:00,295.0,8.45,300.0,10.56,14.4,47.59359,-54.27349
2022-02-25 15:44:01+00:00,294.0,9.4,288.0,13.21,14.4,47.59359,-54.27349
2022-02-25 15:54:01+00:00,303.0,9.94,302.0,12.02,14.4,47.59359,-54.27349
2022-02-25 16:04:01+00:00,309.0,8.56,310.0,10.09,14.4,47.59359,-54.27349
2022-02-25 16:14:01+00:00,299.0,8.25,288.0,14.15,13.68,47.59359,-54.27349
2022-02-25 16:24:01+00:00,282.0,9.63,267.0,13.96,13.68,47.59359,-54.27349
2022-02-25 16:34:01+00:00,284.0,11.4,282.0,14.11,13.68,47.59359,-54.27349
2022-02-25 16:44:01+00:00,274.0,12.85,275.0,14.25,13.68,47.59359,-54.27349
2022-02-25 16:54:01+00:00,294.0,8.3,287.0,9.32,13.68,47.59359,-54.27349
2022-02-25 17:04:01+00:00,288.0,12.27,287.0,14.85,13.68,47.59359,-54.27349
2022-02-25 17:14:00+00:00,292.0,8.45,289.0,14.06,13.6,47.59359,-54.27349
2022-02-25 17:24:00+00:00,270.0,10.35,276.0,13.27,13.6,47.59359,-54.27349
2022-02-25 17:34:00+00:00,282.0,7.99,284.0,12.79,13.6,47.59359,-54.27349
2022-02-25 17:44:00+00:00,271.0,11.92,273.0,13.48,13.6,47.59359,-54.27349
2022-02-25 17:54:00+00:00,271.0,4.98,269.0,7.28,13.6,47.59359,-54.27349
2022-02-25 18:04:00+00:00,272.0,5.67,282.0,7.39,13.6,47.59359,-54.27349
2022-02-25 18:14:01+00:00,292.0,4.71,304.0,6.02,14.24,47.59359,-54.27349
2022-02-25 18:24:01+00:00,324.0,6.69,328.0,8.9,14.24,47.59359,-54.27349
2022-02-25 18:34:01+00:00,288.0,4.68,287.0,8.09,14.24,47.59359,-54.27349
2022-02-25 18:44:01+00:00,270.0,5.23,272.0,7.79,14.24,47.59359,-54.27349
2022-02-25 18:54:01+00:00,272.0,4.59,270.0,7.9,14.24,47.59359,-54.27349
2022-02-25 19:04:01+00:00,294.0,8.01,299.0,9.03,14.24,47.59359,-54.27349
2022-02-25 19:14:01+00:00,280.0,5.96,277.0,10.54,13.68,47.59359,-54.27349
2022-02-25 19:24:01+00:00,283.0,6.05,280.0,8.25,13.68,47.59359,-54.27349
2022-02-25 19:34:01+00:00,252.0,8.13,255.0,11.74,13.68,47.59359,-54.27349
2022-02-25 19:44:01+00:00,254.0,8.64,255.0,12.76,13.68,47.59359,-54.27349
2022-02-25 19:54:01+00:00,253.0,7.99,262.0,10.63,13.68,47.59359,-54.27349
2022-02-25 20:04:01+00:00,259.0,11.76,263.0,14.21,13.68,47.59359,-54.27349
2022-02-25 20:14:01+00:00,256.0,8.19,260.0,11.87,13.37,47.59359,-54.27349
2022-02-25 20:24:01+00:00,258.0,8.63,258.0,13.05,13.37,47.59359,-54.27349
2022-02-25 20:34:01+00:00,281.0,8.38,277.0,12.65,13.37,47.59359,-54.27349
2022-02-25 20:44:01+00:00,263.0,8.14,270.0,13.29,13.37,47.59359,-54.27349
2022-02-25 20:54:01+00:00,252.0,8.99,254.0,13.35,13.37,47.59359,-54.27349
2022-02-25 21:04:01+00:00,256.0,8.46,261.0,12.98,13.37,47.59359,-54.27349
2022-02-25 21:14:00+00:00,268.0,7.02,272.0,11.49,12.73,47.59359,-54.27349
2022-02-25 21:24:00+00:00,271.0,7.86,273.0,11.04,12.73,47.59359,-54.27349
2022-02-25 21:34:00+00:00,281.0,5.6,278.0,8.13,12.73,47.59359,-54.27349
2022-02-25 21:44:00+00:00,282.0,2.08,293.0,3.13,12.73,47.59359,-54.27349
2022-02-25 21:54:00+00:00,240.0,5.23,250.0,8.49,12.73,47.59359,-54.27349
2022-02-25 22:04:00+00:00,243.0,4.79,257.0,9.5,12.73,47.59359,-54.27349
2022-02-25 22:14:00+00:00,252.0,3.4,258.0,7.6,12.49,47.59359,-54.27349
2022-02-25 22:24:00+00:00,247.0,5.61,257.0,11.52,12.49,47.59359,-54.27349
2022-02-25 22:34:00+00:00,250.0,7.15,248.0,8.45,12.49,47.59359,-54.27349
2022-02-25 22:44:00+00:00,245.0,6.12,252.0,8.99,12.49,47.59359,-54.27349
2022-02-25 22:54:00+00:00,254.0,6.41,246.0,8.86,12.49,47.59359,-54.27349
2022-02-25 23:04:00+00:00,248.0,6.59,247.0,8.44,12.49,47.59359,-54.27349
2022-02-25 23:14:01+00:00,239.0,3.46,242.0,8.19,12.41,47.59359,-54.27349
2022-02-25 23:24:01+00:00,239.0,4.24,258.0,7.75,12.41,47.59359,-54.27349
2022-02-25 23:34:01+00:00,246.0,3.1,262.0,7.35,12.41,47.59359,-54.27349
2022-02-25 23:44:01+00:00,262.0,4.0,274.0,7.7,12.41,47.59359,-54.27349
2022-02-25 23:54:01+00:00,245.0,3.75,250.0,4.96,12.41,47.59359,-54.27349
